Tracking 24122 objects as of 9-Dec-2021
HD Live streaming from Space Station
objects crossing your sky now

OPS 4682 DEB

Track OPS 4682 DEB now!
10-day predictions


NORAD ID: 38431
Int'l Code: 1965-027EL
Perigee: 1,252.8 km
Apogee: 1,288.7 km
Inclination: 90.3 °
Period: 110.8 minutes
Semi major axis: 7641 km
RCS: 0.0148 m2 (small)
Launch date: April 3, 1965
Source: United States (US)
Launch site: AIR FORCE WESTERN TEST RANGE (AFWTR)

Note: This is SATELLITE DEBRIS
aabbcc
Your satellite tracking list
Your tracking list is empty




NASA's NSSDC Master Catalog

Two Line Element Set (TLE):
1 38431U 65027EL  21342.40101070  .00000665  00000-0  21964-2 0  9995
2 38431  90.2787 319.2767 0023473 286.4153  73.4389 12.99615659449944
Source of the keplerian elements: AFSPC